SPACECUBE (42717 NORAD) Tracking and Keplerian Element Data

This shows tracking and keplerian element data for the satellite.

Feedback or suggestion? Click here.




ElementValue
Catalog42717
NameSPACECUBE
Epoch Orbit10052
Epoch Day53.1371706
Epoch Year2019
RAAN135.9067
Inclination51.6092
Eccentricity0.0007778
Argument of Perigee9.1483
Mean Anonmoly350.9673
Mean Motion16.14266695
Decay Rate0.00849347
L11 42717U 98067LY 19053.13717060 .00849347 44918-3 65610-3 0 9999
L22 42717 51.6092 135.9067 0007778 9.1483 350.9673 16.14266695100528

Live tracking and technical data element details for SPACECUBE (NORAD 42717). SPACECUBE can be tracked NOW for your location showing map with azimuth and elevation plus other details from your city location.

Track the satellite on the map from your city or location and see movement details for azimuth, elevation, latitude, longitude, range, height, and movement on the map or in text.







IsCatalogInMostPopularTable: catalog: 42717, numindb: 193
Update: records affected: 1



GetName: 42717 SPACECUBE

Hit Count: updated at: Fri, 22 Feb 2019 23:13:29 GMT